#datetime,building,power
2023-09-20T00:00:00,axn,27.13
2023-09-20T00:01:00,axn,28.09
2023-09-20T00:02:00,axn,27.75
2023-09-20T00:03:00,axn,27.68
2023-09-20T00:04:00,axn,27.82
2023-09-20T00:05:00,axn,27.69
2023-09-20T00:06:00,axn,27.78
2023-09-20T00:07:00,axn,27.66
2023-09-20T00:08:00,axn,28.33
2023-09-20T00:09:00,axn,28.01
2023-09-20T00:10:00,axn,27.95
2023-09-20T00:11:00,axn,28.08
2023-09-20T00:12:00,axn,28.18
2023-09-20T00:13:00,axn,28.01
2023-09-20T00:14:00,axn,28.30
2023-09-20T00:15:00,axn,28.18
2023-09-20T00:16:00,axn,28.17
2023-09-20T00:17:00,axn,28.45
2023-09-20T00:18:00,axn,28.19
2023-09-20T00:19:00,axn,28.12
2023-09-20T00:20:00,axn,28.09
2023-09-20T00:21:00,axn,28.01
2023-09-20T00:22:00,axn,27.99
2023-09-20T00:23:00,axn,28.15
2023-09-20T00:24:00,axn,28.13
2023-09-20T00:25:00,axn,28.37
2023-09-20T00:26:00,axn,28.09
2023-09-20T00:27:00,axn,28.12
2023-09-20T00:28:00,axn,28.09
2023-09-20T00:29:00,axn,28.14
2023-09-20T00:30:00,axn,28.22
2023-09-20T00:31:00,axn,28.26
2023-09-20T00:32:00,axn,28.21
2023-09-20T00:33:00,axn,28.14
2023-09-20T00:34:00,axn,28.15
2023-09-20T00:35:00,axn,28.08
2023-09-20T00:36:00,axn,28.13
2023-09-20T00:37:00,axn,28.02
2023-09-20T00:38:00,axn,27.57
2023-09-20T00:39:00,axn,27.40
2023-09-20T00:40:00,axn,27.27
2023-09-20T00:41:00,axn,27.45
2023-09-20T00:42:00,axn,27.63
2023-09-20T00:43:00,axn,27.52
2023-09-20T00:44:00,axn,27.81
2023-09-20T00:45:00,axn,28.05
2023-09-20T00:46:00,axn,27.62
2023-09-20T00:47:00,axn,28.00
2023-09-20T00:48:00,axn,27.76
2023-09-20T00:49:00,axn,28.02
2023-09-20T00:50:00,axn,27.74
2023-09-20T00:51:00,axn,28.03
2023-09-20T00:52:00,axn,27.68
2023-09-20T00:53:00,axn,27.85
2023-09-20T00:54:00,axn,28.47
2023-09-20T00:55:00,axn,28.12
2023-09-20T00:56:00,axn,27.73
2023-09-20T00:57:00,axn,28.01
2023-09-20T00:58:00,axn,27.75
2023-09-20T00:59:00,axn,27.90
2023-09-20T01:00:00,axn,32.07
2023-09-20T01:01:00,axn,32.21
2023-09-20T01:02:00,axn,32.09
2023-09-20T01:03:00,axn,29.84
2023-09-20T01:04:00,axn,34.64
2023-09-20T01:05:00,axn,45.54
2023-09-20T01:06:00,axn,45.90
2023-09-20T01:07:00,axn,46.57
2023-09-20T01:08:00,axn,46.73
2023-09-20T01:09:00,axn,46.55
2023-09-20T01:10:00,axn,46.42
2023-09-20T01:11:00,axn,32.81
2023-09-20T01:12:00,axn,32.64
2023-09-20T01:13:00,axn,32.66
2023-09-20T01:14:00,axn,32.62
2023-09-20T01:15:00,axn,32.74
2023-09-20T01:16:00,axn,35.28
2023-09-20T01:17:00,axn,32.44
2023-09-20T01:18:00,axn,32.88
2023-09-20T01:19:00,axn,32.65
2023-09-20T01:20:00,axn,32.70
2023-09-20T01:21:00,axn,31.97
2023-09-20T01:22:00,axn,31.93
2023-09-20T01:23:00,axn,31.51
2023-09-20T01:24:00,axn,31.64
2023-09-20T01:25:00,axn,31.54
2023-09-20T01:26:00,axn,31.75
2023-09-20T01:27:00,axn,31.67
2023-09-20T01:28:00,axn,31.59
2023-09-20T01:29:00,axn,31.53
2023-09-20T01:30:00,axn,31.83
2023-09-20T01:31:00,axn,31.59
2023-09-20T01:32:00,axn,31.70
2023-09-20T01:33:00,axn,31.88
2023-09-20T01:34:00,axn,32.19
2023-09-20T01:35:00,axn,32.13
2023-09-20T01:36:00,axn,32.21
2023-09-20T01:37:00,axn,31.68
2023-09-20T01:38:00,axn,31.69
2023-09-20T01:39:00,axn,31.71
2023-09-20T01:40:00,axn,31.67
2023-09-20T01:41:00,axn,32.11
2023-09-20T01:42:00,axn,31.80
2023-09-20T01:43:00,axn,31.72
2023-09-20T01:44:00,axn,31.79
2023-09-20T01:45:00,axn,31.93
2023-09-20T01:46:00,axn,32.17
2023-09-20T01:47:00,axn,31.83
2023-09-20T01:48:00,axn,32.12
2023-09-20T01:49:00,axn,32.36
2023-09-20T01:50:00,axn,31.89
2023-09-20T01:51:00,axn,31.95
2023-09-20T01:52:00,axn,31.90
2023-09-20T01:53:00,axn,31.99
2023-09-20T01:54:00,axn,32.48
2023-09-20T01:55:00,axn,32.07
2023-09-20T01:56:00,axn,32.06
2023-09-20T01:57:00,axn,32.05
2023-09-20T01:58:00,axn,32.03
2023-09-20T01:59:00,axn,31.89
2023-09-20T02:00:00,axn,32.40
2023-09-20T02:01:00,axn,32.25
2023-09-20T02:02:00,axn,32.55
2023-09-20T02:03:00,axn,32.05
2023-09-20T02:04:00,axn,32.54
2023-09-20T02:05:00,axn,32.19
2023-09-20T02:06:00,axn,32.18
2023-09-20T02:07:00,axn,32.14
2023-09-20T02:08:00,axn,32.38
2023-09-20T02:09:00,axn,32.18
2023-09-20T02:10:00,axn,32.35
2023-09-20T02:11:00,axn,32.29
2023-09-20T02:12:00,axn,32.36
2023-09-20T02:13:00,axn,32.38
2023-09-20T02:14:00,axn,31.86
2023-09-20T02:15:00,axn,31.71
2023-09-20T02:16:00,axn,31.78
2023-09-20T02:17:00,axn,31.85
2023-09-20T02:18:00,axn,31.81
2023-09-20T02:19:00,axn,31.54
2023-09-20T02:20:00,axn,31.59
2023-09-20T02:21:00,axn,31.52
2023-09-20T02:22:00,axn,31.52
2023-09-20T02:23:00,axn,31.47
2023-09-20T02:24:00,axn,31.37
2023-09-20T02:25:00,axn,31.56
2023-09-20T02:26:00,axn,31.61
2023-09-20T02:27:00,axn,31.58
2023-09-20T02:28:00,axn,31.55
2023-09-20T02:29:00,axn,31.36
2023-09-20T02:30:00,axn,31.69
2023-09-20T02:31:00,axn,31.61
2023-09-20T02:32:00,axn,32.01
2023-09-20T02:33:00,axn,32.36
2023-09-20T02:34:00,axn,32.32
2023-09-20T02:35:00,axn,32.02
2023-09-20T02:36:00,axn,32.11
2023-09-20T02:37:00,axn,32.53
2023-09-20T02:38:00,axn,32.04
2023-09-20T02:39:00,axn,32.11
2023-09-20T02:40:00,axn,32.11
2023-09-20T02:41:00,axn,32.40
2023-09-20T02:42:00,axn,32.00
2023-09-20T02:43:00,axn,32.12
2023-09-20T02:44:00,axn,32.00
2023-09-20T02:45:00,axn,31.89
2023-09-20T02:46:00,axn,31.88
2023-09-20T02:47:00,axn,31.97
2023-09-20T02:48:00,axn,31.97
2023-09-20T02:49:00,axn,31.71
2023-09-20T02:50:00,axn,31.54
2023-09-20T02:51:00,axn,31.94
2023-09-20T02:52:00,axn,31.61
2023-09-20T02:53:00,axn,31.62
2023-09-20T02:54:00,axn,31.74
2023-09-20T02:55:00,axn,37.60
2023-09-20T02:56:00,axn,37.61
2023-09-20T02:57:00,axn,37.65
2023-09-20T02:58:00,axn,31.84
2023-09-20T02:59:00,axn,32.08
2023-09-20T03:00:00,axn,31.88
2023-09-20T03:01:00,axn,31.99
2023-09-20T03:02:00,axn,32.11
2023-09-20T03:03:00,axn,32.34
2023-09-20T03:04:00,axn,32.09
2023-09-20T03:05:00,axn,32.10
2023-09-20T03:06:00,axn,32.00
2023-09-20T03:07:00,axn,31.97
2023-09-20T03:08:00,axn,32.03
2023-09-20T03:09:00,axn,31.99
2023-09-20T03:10:00,axn,31.88
2023-09-20T03:11:00,axn,31.98
2023-09-20T03:12:00,axn,32.35
2023-09-20T03:13:00,axn,32.03
2023-09-20T03:14:00,axn,32.10
2023-09-20T03:15:00,axn,32.08
2023-09-20T03:16:00,axn,32.11
2023-09-20T03:17:00,axn,32.39
2023-09-20T03:18:00,axn,32.22
2023-09-20T03:19:00,axn,31.99
2023-09-20T03:20:00,axn,32.23
2023-09-20T03:21:00,axn,32.28
2023-09-20T03:22:00,axn,31.96
2023-09-20T03:23:00,axn,32.03
2023-09-20T03:24:00,axn,32.03
2023-09-20T03:25:00,axn,31.98
2023-09-20T03:26:00,axn,32.03
2023-09-20T03:27:00,axn,31.91
2023-09-20T03:28:00,axn,32.03
2023-09-20T03:29:00,axn,31.97
2023-09-20T03:30:00,axn,32.05
2023-09-20T03:31:00,axn,32.01
2023-09-20T03:32:00,axn,32.10
2023-09-20T03:33:00,axn,32.08
2023-09-20T03:34:00,axn,32.05
2023-09-20T03:35:00,axn,31.97
2023-09-20T03:36:00,axn,31.89
2023-09-20T03:37:00,axn,31.82
2023-09-20T03:38:00,axn,31.80
2023-09-20T03:39:00,axn,31.86
2023-09-20T03:40:00,axn,31.78
2023-09-20T03:41:00,axn,31.86
2023-09-20T03:42:00,axn,31.92
2023-09-20T03:43:00,axn,31.78
2023-09-20T03:44:00,axn,31.92
2023-09-20T03:45:00,axn,31.91
2023-09-20T03:46:00,axn,32.05
2023-09-20T03:47:00,axn,32.22
2023-09-20T03:48:00,axn,33.17
2023-09-20T03:49:00,axn,32.22
2023-09-20T03:50:00,axn,32.77
2023-09-20T03:51:00,axn,31.80
2023-09-20T03:52:00,axn,32.26
2023-09-20T03:53:00,axn,31.91
2023-09-20T03:54:00,axn,32.09
2023-09-20T03:55:00,axn,31.87
2023-09-20T03:56:00,axn,31.91
2023-09-20T03:57:00,axn,32.10
2023-09-20T03:58:00,axn,31.88
2023-09-20T03:59:00,axn,32.41
2023-09-20T04:00:00,axn,31.68
2023-09-20T04:01:00,axn,31.99
2023-09-20T04:02:00,axn,31.98
2023-09-20T04:03:00,axn,31.64
2023-09-20T04:04:00,axn,31.49
2023-09-20T04:05:00,axn,31.53
2023-09-20T04:06:00,axn,31.62
2023-09-20T04:07:00,axn,31.50
2023-09-20T04:08:00,axn,31.84
2023-09-20T04:09:00,axn,31.51
2023-09-20T04:10:00,axn,32.27
2023-09-20T04:11:00,axn,42.98
2023-09-20T04:12:00,axn,34.97
2023-09-20T04:13:00,axn,42.47
2023-09-20T04:14:00,axn,42.68
2023-09-20T04:15:00,axn,42.39
2023-09-20T04:16:00,axn,42.37
2023-09-20T04:17:00,axn,32.37
2023-09-20T04:18:00,axn,32.12
2023-09-20T04:19:00,axn,32.09
2023-09-20T04:20:00,axn,32.08
2023-09-20T04:21:00,axn,32.29
2023-09-20T04:22:00,axn,32.12
2023-09-20T04:23:00,axn,31.78
2023-09-20T04:24:00,axn,31.88
2023-09-20T04:25:00,axn,49.63
2023-09-20T04:26:00,axn,31.83
2023-09-20T04:27:00,axn,31.97
2023-09-20T04:28:00,axn,31.81
2023-09-20T04:29:00,axn,34.41
2023-09-20T04:30:00,axn,34.58
2023-09-20T04:31:00,axn,34.51
2023-09-20T04:32:00,axn,31.57
2023-09-20T04:33:00,axn,31.74
2023-09-20T04:34:00,axn,31.75
2023-09-20T04:35:00,axn,31.70
2023-09-20T04:36:00,axn,31.38
2023-09-20T04:37:00,axn,31.61
2023-09-20T04:38:00,axn,31.60
2023-09-20T04:39:00,axn,32.29
2023-09-20T04:40:00,axn,32.24
2023-09-20T04:41:00,axn,32.36
2023-09-20T04:42:00,axn,32.75
2023-09-20T04:43:00,axn,32.15
2023-09-20T04:44:00,axn,32.17
2023-09-20T04:45:00,axn,32.00
2023-09-20T04:46:00,axn,31.86
2023-09-20T04:47:00,axn,31.45
2023-09-20T04:48:00,axn,32.15
2023-09-20T04:49:00,axn,32.05
2023-09-20T04:50:00,axn,32.07
2023-09-20T04:51:00,axn,32.04
2023-09-20T04:52:00,axn,32.03
2023-09-20T04:53:00,axn,32.50
2023-09-20T04:54:00,axn,31.81
2023-09-20T04:55:00,axn,43.63
2023-09-20T04:56:00,axn,32.14
2023-09-20T04:57:00,axn,32.11
2023-09-20T04:58:00,axn,31.28
2023-09-20T04:59:00,axn,30.48
2023-09-20T05:00:00,axn,30.38
2023-09-20T05:01:00,axn,26.25
2023-09-20T05:02:00,axn,26.07
2023-09-20T05:03:00,axn,26.07
2023-09-20T05:04:00,axn,26.71
2023-09-20T05:05:00,axn,26.05
2023-09-20T05:06:00,axn,25.84
2023-09-20T05:07:00,axn,26.20
2023-09-20T05:08:00,axn,25.01
2023-09-20T05:09:00,axn,25.27
2023-09-20T05:10:00,axn,24.86
2023-09-20T05:11:00,axn,24.86
2023-09-20T05:12:00,axn,24.77
2023-09-20T05:13:00,axn,25.07
2023-09-20T05:14:00,axn,25.01
2023-09-20T05:15:00,axn,25.18
2023-09-20T05:16:00,axn,25.17
2023-09-20T05:17:00,axn,25.48
2023-09-20T05:18:00,axn,24.68
2023-09-20T05:19:00,axn,24.69
2023-09-20T05:20:00,axn,25.20
2023-09-20T05:21:00,axn,24.86
2023-09-20T05:22:00,axn,24.34
2023-09-20T05:23:00,axn,24.52
2023-09-20T05:24:00,axn,24.51
2023-09-20T05:25:00,axn,24.54
2023-09-20T05:26:00,axn,24.43
2023-09-20T05:27:00,axn,24.60
2023-09-20T05:28:00,axn,24.67
2023-09-20T05:29:00,axn,38.06
2023-09-20T05:30:00,axn,24.45
2023-09-20T05:31:00,axn,27.13
2023-09-20T05:32:00,axn,26.80
2023-09-20T05:33:00,axn,27.08
2023-09-20T05:34:00,axn,27.50
2023-09-20T05:35:00,axn,26.91
2023-09-20T05:36:00,axn,26.77
2023-09-20T05:37:00,axn,26.94
2023-09-20T05:38:00,axn,26.78
2023-09-20T05:39:00,axn,26.82
2023-09-20T05:40:00,axn,26.86
2023-09-20T05:41:00,axn,26.74
2023-09-20T05:42:00,axn,44.17
2023-09-20T05:43:00,axn,41.14
2023-09-20T05:44:00,axn,41.21
2023-09-20T05:45:00,axn,40.77
2023-09-20T05:46:00,axn,40.50
2023-09-20T05:47:00,axn,26.58
2023-09-20T05:48:00,axn,26.51
2023-09-20T05:49:00,axn,26.56
2023-09-20T05:50:00,axn,27.08
2023-09-20T05:51:00,axn,26.95
2023-09-20T05:52:00,axn,27.45
2023-09-20T05:53:00,axn,27.17
2023-09-20T05:54:00,axn,26.88
2023-09-20T05:55:00,axn,26.84
2023-09-20T05:56:00,axn,43.83
2023-09-20T05:57:00,axn,26.98
2023-09-20T05:58:00,axn,26.96
2023-09-20T05:59:00,axn,27.13
2023-09-20T06:00:00,axn,27.32
2023-09-20T06:01:00,axn,27.51
2023-09-20T06:02:00,axn,27.26
2023-09-20T06:03:00,axn,26.32
2023-09-20T06:04:00,axn,26.50
2023-09-20T06:05:00,axn,26.17
2023-09-20T06:06:00,axn,26.49
2023-09-20T06:07:00,axn,26.08
2023-09-20T06:08:00,axn,26.02
2023-09-20T06:09:00,axn,25.91
2023-09-20T06:10:00,axn,25.91
2023-09-20T06:11:00,axn,25.80
2023-09-20T06:12:00,axn,25.68
2023-09-20T06:13:00,axn,26.20
2023-09-20T06:14:00,axn,25.47
2023-09-20T06:15:00,axn,25.30
2023-09-20T06:16:00,axn,25.26
2023-09-20T06:17:00,axn,25.45
2023-09-20T06:18:00,axn,25.27
2023-09-20T06:19:00,axn,25.44
2023-09-20T06:20:00,axn,25.32
2023-09-20T06:21:00,axn,25.54
2023-09-20T06:22:00,axn,25.56
2023-09-20T06:23:00,axn,25.34
2023-09-20T06:24:00,axn,25.22
2023-09-20T06:25:00,axn,25.27
2023-09-20T06:26:00,axn,25.49
2023-09-20T06:27:00,axn,25.53
2023-09-20T06:28:00,axn,25.34
2023-09-20T06:29:00,axn,25.43
2023-09-20T06:30:00,axn,25.37
2023-09-20T06:31:00,axn,25.34
2023-09-20T06:32:00,axn,25.41
2023-09-20T06:33:00,axn,25.46
2023-09-20T06:34:00,axn,24.95
2023-09-20T06:35:00,axn,25.56
2023-09-20T06:36:00,axn,25.30
2023-09-20T06:37:00,axn,25.12
2023-09-20T06:38:00,axn,25.18
2023-09-20T06:39:00,axn,25.13
2023-09-20T06:40:00,axn,25.14
2023-09-20T06:41:00,axn,25.34
2023-09-20T06:42:00,axn,24.99
2023-09-20T06:43:00,axn,25.01
2023-09-20T06:44:00,axn,24.93
2023-09-20T06:45:00,axn,24.73
2023-09-20T06:46:00,axn,25.13
2023-09-20T06:47:00,axn,24.83
2023-09-20T06:48:00,axn,25.45
2023-09-20T06:49:00,axn,25.97
2023-09-20T06:50:00,axn,25.44
2023-09-20T06:51:00,axn,25.80
2023-09-20T06:52:00,axn,25.29
2023-09-20T06:53:00,axn,25.46
2023-09-20T06:54:00,axn,25.86
2023-09-20T06:55:00,axn,25.88
2023-09-20T06:56:00,axn,26.10
2023-09-20T06:57:00,axn,26.08
2023-09-20T06:58:00,axn,25.66
2023-09-20T06:59:00,axn,25.80
2023-09-20T07:00:00,axn,25.68
2023-09-20T07:01:00,axn,28.93
2023-09-20T07:02:00,axn,31.97
2023-09-20T07:03:00,axn,32.29
2023-09-20T07:04:00,axn,32.65
2023-09-20T07:05:00,axn,32.55
2023-09-20T07:06:00,axn,32.49
2023-09-20T07:07:00,axn,32.16
2023-09-20T07:08:00,axn,31.98
2023-09-20T07:09:00,axn,34.53
2023-09-20T07:10:00,axn,34.41
2023-09-20T07:11:00,axn,34.70
2023-09-20T07:12:00,axn,34.09
2023-09-20T07:13:00,axn,34.36
2023-09-20T07:14:00,axn,34.92
2023-09-20T07:15:00,axn,31.97
2023-09-20T07:16:00,axn,32.02
2023-09-20T07:17:00,axn,32.16
2023-09-20T07:18:00,axn,31.86
2023-09-20T07:19:00,axn,32.18
2023-09-20T07:20:00,axn,31.85
2023-09-20T07:21:00,axn,47.80
2023-09-20T07:22:00,axn,36.41
2023-09-20T07:23:00,axn,36.26
2023-09-20T07:24:00,axn,31.82
2023-09-20T07:25:00,axn,32.14
2023-09-20T07:26:00,axn,32.17
2023-09-20T07:27:00,axn,31.82
2023-09-20T07:28:00,axn,32.10
2023-09-20T07:29:00,axn,32.00
2023-09-20T07:30:00,axn,31.95
2023-09-20T07:31:00,axn,31.96
2023-09-20T07:32:00,axn,31.64
2023-09-20T07:33:00,axn,31.51
2023-09-20T07:34:00,axn,31.43
2023-09-20T07:35:00,axn,31.51
2023-09-20T07:36:00,axn,31.72
2023-09-20T07:37:00,axn,31.87
2023-09-20T07:38:00,axn,31.93
2023-09-20T07:39:00,axn,32.05
2023-09-20T07:40:00,axn,32.05
2023-09-20T07:41:00,axn,44.21
2023-09-20T07:42:00,axn,32.39
2023-09-20T07:43:00,axn,32.28
2023-09-20T07:44:00,axn,35.97
2023-09-20T07:45:00,axn,36.46
2023-09-20T07:46:00,axn,36.67
2023-09-20T07:47:00,axn,36.71
2023-09-20T07:48:00,axn,36.43
2023-09-20T07:49:00,axn,36.27
2023-09-20T07:50:00,axn,36.02
2023-09-20T07:51:00,axn,36.15
2023-09-20T07:52:00,axn,36.63
2023-09-20T07:53:00,axn,36.58
2023-09-20T07:54:00,axn,36.66
2023-09-20T07:55:00,axn,36.56
2023-09-20T07:56:00,axn,37.15
2023-09-20T07:57:00,axn,37.09
2023-09-20T07:58:00,axn,37.06
2023-09-20T07:59:00,axn,36.95
2023-09-20T08:00:00,axn,37.05
2023-09-20T08:01:00,axn,37.19
2023-09-20T08:02:00,axn,36.80
2023-09-20T08:03:00,axn,36.75
2023-09-20T08:04:00,axn,36.88
2023-09-20T08:05:00,axn,37.49
2023-09-20T08:06:00,axn,37.07
2023-09-20T08:07:00,axn,37.02
2023-09-20T08:08:00,axn,37.20
2023-09-20T08:09:00,axn,36.42
2023-09-20T08:10:00,axn,36.56
2023-09-20T08:11:00,axn,37.15
2023-09-20T08:12:00,axn,36.89
2023-09-20T08:13:00,axn,37.64
2023-09-20T08:14:00,axn,44.65
2023-09-20T08:15:00,axn,43.97
2023-09-20T08:16:00,axn,43.47
2023-09-20T08:17:00,axn,37.95
2023-09-20T08:18:00,axn,37.90
2023-09-20T08:19:00,axn,37.89
2023-09-20T08:20:00,axn,38.48
2023-09-20T08:21:00,axn,38.32
2023-09-20T08:22:00,axn,38.29
2023-09-20T08:23:00,axn,38.28
2023-09-20T08:24:00,axn,38.48
2023-09-20T08:25:00,axn,38.25
2023-09-20T08:26:00,axn,38.17
2023-09-20T08:27:00,axn,38.18
2023-09-20T08:28:00,axn,38.07
2023-09-20T08:29:00,axn,38.35
2023-09-20T08:30:00,axn,38.60
2023-09-20T08:31:00,axn,38.73
2023-09-20T08:32:00,axn,39.25
2023-09-20T08:33:00,axn,38.17
2023-09-20T08:34:00,axn,38.00
2023-09-20T08:35:00,axn,38.24
2023-09-20T08:36:00,axn,38.30
2023-09-20T08:37:00,axn,38.49
2023-09-20T08:38:00,axn,39.83
2023-09-20T08:39:00,axn,40.88
2023-09-20T08:40:00,axn,40.34
2023-09-20T08:41:00,axn,40.53
2023-09-20T08:42:00,axn,40.30
2023-09-20T08:43:00,axn,40.87
2023-09-20T08:44:00,axn,41.47
2023-09-20T08:45:00,axn,41.39
2023-09-20T08:46:00,axn,41.06
2023-09-20T08:47:00,axn,40.56
2023-09-20T08:48:00,axn,42.84
2023-09-20T08:49:00,axn,40.54
2023-09-20T08:50:00,axn,40.37
2023-09-20T08:51:00,axn,40.34
2023-09-20T08:52:00,axn,40.45
2023-09-20T08:53:00,axn,40.41
2023-09-20T08:54:00,axn,40.13
2023-09-20T08:55:00,axn,40.58
2023-09-20T08:56:00,axn,40.36
2023-09-20T08:57:00,axn,40.57
2023-09-20T08:58:00,axn,40.05
2023-09-20T08:59:00,axn,40.26
2023-09-20T09:00:00,axn,40.51
2023-09-20T09:01:00,axn,40.79
2023-09-20T09:02:00,axn,41.27
2023-09-20T09:03:00,axn,43.87
2023-09-20T09:04:00,axn,43.60
2023-09-20T09:05:00,axn,44.14
2023-09-20T09:06:00,axn,40.90
2023-09-20T09:07:00,axn,41.59
2023-09-20T09:08:00,axn,42.05
2023-09-20T09:09:00,axn,41.01
2023-09-20T09:10:00,axn,41.16
2023-09-20T09:11:00,axn,41.34
2023-09-20T09:12:00,axn,40.86
2023-09-20T09:13:00,axn,40.76
2023-09-20T09:14:00,axn,40.71
2023-09-20T09:15:00,axn,40.76
2023-09-20T09:16:00,axn,41.26
2023-09-20T09:17:00,axn,40.82
2023-09-20T09:18:00,axn,40.81
2023-09-20T09:19:00,axn,44.08
2023-09-20T09:20:00,axn,44.26
2023-09-20T09:21:00,axn,40.71
2023-09-20T09:22:00,axn,41.24
2023-09-20T09:23:00,axn,40.82
2023-09-20T09:24:00,axn,40.73
2023-09-20T09:25:00,axn,41.21
2023-09-20T09:26:00,axn,55.82
2023-09-20T09:27:00,axn,55.33
2023-09-20T09:28:00,axn,55.02
2023-09-20T09:29:00,axn,55.23
2023-09-20T09:30:00,axn,54.90
2023-09-20T09:31:00,axn,55.28
2023-09-20T09:32:00,axn,41.00
2023-09-20T09:33:00,axn,40.89
2023-09-20T09:34:00,axn,43.85
2023-09-20T09:35:00,axn,44.59
2023-09-20T09:36:00,axn,41.60
2023-09-20T09:37:00,axn,43.92
2023-09-20T09:38:00,axn,45.13
2023-09-20T09:39:00,axn,45.78
2023-09-20T09:40:00,axn,45.52
2023-09-20T09:41:00,axn,42.85
2023-09-20T09:42:00,axn,42.59
2023-09-20T09:43:00,axn,42.70
2023-09-20T09:44:00,axn,43.06
2023-09-20T09:45:00,axn,43.45
2023-09-20T09:46:00,axn,42.94
2023-09-20T09:47:00,axn,43.18
2023-09-20T09:48:00,axn,43.04
2023-09-20T09:49:00,axn,42.91
2023-09-20T09:50:00,axn,43.74
2023-09-20T09:51:00,axn,59.52
2023-09-20T09:52:00,axn,43.84
2023-09-20T09:53:00,axn,43.56
2023-09-20T09:54:00,axn,42.83
2023-09-20T09:55:00,axn,43.02
2023-09-20T09:56:00,axn,43.33
2023-09-20T09:57:00,axn,42.99
2023-09-20T09:58:00,axn,42.85
2023-09-20T09:59:00,axn,57.41
2023-09-20T10:00:00,axn,42.42
2023-09-20T10:01:00,axn,42.64
2023-09-20T10:02:00,axn,42.72
2023-09-20T10:03:00,axn,42.99
2023-09-20T10:04:00,axn,42.54
2023-09-20T10:05:00,axn,42.38
2023-09-20T10:06:00,axn,42.37
2023-09-20T10:07:00,axn,42.26
2023-09-20T10:08:00,axn,42.38
2023-09-20T10:09:00,axn,42.57
2023-09-20T10:10:00,axn,42.21
2023-09-20T10:11:00,axn,42.12
2023-09-20T10:12:00,axn,41.94
2023-09-20T10:13:00,axn,42.13
2023-09-20T10:14:00,axn,42.40
2023-09-20T10:15:00,axn,42.32
2023-09-20T10:16:00,axn,41.86
2023-09-20T10:17:00,axn,42.04
2023-09-20T10:18:00,axn,52.97
2023-09-20T10:19:00,axn,53.07
2023-09-20T10:20:00,axn,51.69
2023-09-20T10:21:00,axn,51.95
2023-09-20T10:22:00,axn,51.77
2023-09-20T10:23:00,axn,41.65
2023-09-20T10:24:00,axn,41.54
2023-09-20T10:25:00,axn,41.96
2023-09-20T10:26:00,axn,44.74
2023-09-20T10:27:00,axn,44.13
2023-09-20T10:28:00,axn,41.97
2023-09-20T10:29:00,axn,41.46
2023-09-20T10:30:00,axn,41.66
2023-09-20T10:31:00,axn,41.99
2023-09-20T10:32:00,axn,41.95
2023-09-20T10:33:00,axn,41.93
2023-09-20T10:34:00,axn,42.04
2023-09-20T10:35:00,axn,41.98
2023-09-20T10:36:00,axn,42.30
2023-09-20T10:37:00,axn,42.11
2023-09-20T10:38:00,axn,43.46
2023-09-20T10:39:00,axn,41.92
2023-09-20T10:40:00,axn,41.56
2023-09-20T10:41:00,axn,41.58
2023-09-20T10:42:00,axn,41.77
2023-09-20T10:43:00,axn,42.15
2023-09-20T10:44:00,axn,42.43
2023-09-20T10:45:00,axn,41.88
2023-09-20T10:46:00,axn,41.90
2023-09-20T10:47:00,axn,46.67
2023-09-20T10:48:00,axn,41.72
2023-09-20T10:49:00,axn,41.42
2023-09-20T10:50:00,axn,41.36
2023-09-20T10:51:00,axn,41.30
2023-09-20T10:52:00,axn,41.12
2023-09-20T10:53:00,axn,41.70
2023-09-20T10:54:00,axn,41.71
2023-09-20T10:55:00,axn,44.63
2023-09-20T10:56:00,axn,44.62
2023-09-20T10:57:00,axn,44.55
2023-09-20T10:58:00,axn,45.35
2023-09-20T10:59:00,axn,41.84
2023-09-20T11:00:00,axn,42.16
2023-09-20T11:01:00,axn,41.88
2023-09-20T11:02:00,axn,41.47
2023-09-20T11:03:00,axn,41.49
2023-09-20T11:04:00,axn,41.91
2023-09-20T11:05:00,axn,41.59
2023-09-20T11:06:00,axn,41.27
2023-09-20T11:07:00,axn,42.76
2023-09-20T11:08:00,axn,41.48
2023-09-20T11:09:00,axn,41.10
2023-09-20T11:10:00,axn,41.44
2023-09-20T11:11:00,axn,41.71
2023-09-20T11:12:00,axn,42.27
2023-09-20T11:13:00,axn,41.67
2023-09-20T11:14:00,axn,42.78
2023-09-20T11:15:00,axn,42.56
2023-09-20T11:16:00,axn,42.55
2023-09-20T11:17:00,axn,41.70
2023-09-20T11:18:00,axn,41.60
2023-09-20T11:19:00,axn,44.03
2023-09-20T11:20:00,axn,41.87
2023-09-20T11:21:00,axn,42.18
2023-09-20T11:22:00,axn,41.93
2023-09-20T11:23:00,axn,41.84
2023-09-20T11:24:00,axn,41.77
2023-09-20T11:25:00,axn,42.04
2023-09-20T11:26:00,axn,42.47
2023-09-20T11:27:00,axn,44.69
2023-09-20T11:28:00,axn,44.59
2023-09-20T11:29:00,axn,41.89
2023-09-20T11:30:00,axn,42.10
2023-09-20T11:31:00,axn,42.84
2023-09-20T11:32:00,axn,43.81
2023-09-20T11:33:00,axn,43.85
2023-09-20T11:34:00,axn,43.67
2023-09-20T11:35:00,axn,43.59
2023-09-20T11:36:00,axn,44.07
2023-09-20T11:37:00,axn,44.02
2023-09-20T11:38:00,axn,43.70
2023-09-20T11:39:00,axn,43.81
2023-09-20T11:40:00,axn,43.91
2023-09-20T11:41:00,axn,43.42
2023-09-20T11:42:00,axn,43.38
2023-09-20T11:43:00,axn,43.61
2023-09-20T11:44:00,axn,43.97
2023-09-20T11:45:00,axn,43.29
2023-09-20T11:46:00,axn,43.41
2023-09-20T11:47:00,axn,43.97
2023-09-20T11:48:00,axn,59.56
2023-09-20T11:49:00,axn,43.44
2023-09-20T11:50:00,axn,43.52
2023-09-20T11:51:00,axn,42.96
2023-09-20T11:52:00,axn,43.09
2023-09-20T11:53:00,axn,43.21
2023-09-20T11:54:00,axn,43.80
2023-09-20T11:55:00,axn,43.90
2023-09-20T11:56:00,axn,43.43
2023-09-20T11:57:00,axn,44.02
2023-09-20T11:58:00,axn,43.91
2023-09-20T11:59:00,axn,45.96
2023-09-20T12:00:00,axn,45.69
2023-09-20T12:01:00,axn,46.35
2023-09-20T12:02:00,axn,43.27
2023-09-20T12:03:00,axn,43.95
2023-09-20T12:04:00,axn,43.43
2023-09-20T12:05:00,axn,43.18
2023-09-20T12:06:00,axn,60.85
2023-09-20T12:07:00,axn,43.34
2023-09-20T12:08:00,axn,43.04
2023-09-20T12:09:00,axn,43.33
2023-09-20T12:10:00,axn,43.34
2023-09-20T12:11:00,axn,43.33
2023-09-20T12:12:00,axn,43.20
2023-09-20T12:13:00,axn,43.38
2023-09-20T12:14:00,axn,43.59
2023-09-20T12:15:00,axn,44.11
2023-09-20T12:16:00,axn,43.20
2023-09-20T12:17:00,axn,43.23
2023-09-20T12:18:00,axn,43.15
2023-09-20T12:19:00,axn,44.31
2023-09-20T12:20:00,axn,43.49
2023-09-20T12:21:00,axn,43.70
2023-09-20T12:22:00,axn,43.34
2023-09-20T12:23:00,axn,43.69
2023-09-20T12:24:00,axn,44.04
2023-09-20T12:25:00,axn,43.21
2023-09-20T12:26:00,axn,43.54
2023-09-20T12:27:00,axn,43.05
2023-09-20T12:28:00,axn,43.06
2023-09-20T12:29:00,axn,42.84
2023-09-20T12:30:00,axn,42.73
2023-09-20T12:31:00,axn,43.59
2023-09-20T12:32:00,axn,45.26
2023-09-20T12:33:00,axn,45.83
2023-09-20T12:34:00,axn,45.61
2023-09-20T12:35:00,axn,45.44
2023-09-20T12:36:00,axn,57.47
2023-09-20T12:37:00,axn,57.63
2023-09-20T12:38:00,axn,56.85
2023-09-20T12:39:00,axn,57.10
2023-09-20T12:40:00,axn,44.25
2023-09-20T12:41:00,axn,57.90
2023-09-20T12:42:00,axn,43.68
2023-09-20T12:43:00,axn,45.36
2023-09-20T12:44:00,axn,45.36
2023-09-20T12:45:00,axn,46.12
2023-09-20T12:46:00,axn,46.06
2023-09-20T12:47:00,axn,48.93
2023-09-20T12:48:00,axn,46.43
2023-09-20T12:49:00,axn,48.26
2023-09-20T12:50:00,axn,46.26
2023-09-20T12:51:00,axn,46.15
2023-09-20T12:52:00,axn,46.24
2023-09-20T12:53:00,axn,46.05
2023-09-20T12:54:00,axn,46.40
2023-09-20T12:55:00,axn,46.25
2023-09-20T12:56:00,axn,46.23
2023-09-20T12:57:00,axn,46.34
2023-09-20T12:58:00,axn,46.45
2023-09-20T12:59:00,axn,47.25
2023-09-20T13:00:00,axn,46.97
2023-09-20T13:01:00,axn,46.93
2023-09-20T13:02:00,axn,46.28
2023-09-20T13:03:00,axn,47.02
2023-09-20T13:04:00,axn,46.31
2023-09-20T13:05:00,axn,48.67
2023-09-20T13:06:00,axn,47.70
2023-09-20T13:07:00,axn,46.50
2023-09-20T13:08:00,axn,45.37
2023-09-20T13:09:00,axn,48.84
2023-09-20T13:10:00,axn,46.08
2023-09-20T13:11:00,axn,45.71
2023-09-20T13:12:00,axn,45.42
2023-09-20T13:13:00,axn,46.32
2023-09-20T13:14:00,axn,46.47
2023-09-20T13:15:00,axn,45.75
2023-09-20T13:16:00,axn,45.49
2023-09-20T13:17:00,axn,45.76
2023-09-20T13:18:00,axn,45.51